OE3APM-13 Weather Reports


time (UTC)temp
C
wind
direction
speed
KPH
gust
KPH
rain 1hr
cm
rain 24hr
cm
rain mn
cm
humidity
%
barometer
mb
20260507164403 16 251 4.8 12.9 0.00 0.00 0.00 53 1012.5
20260507163903 16 261 4.8 11.3 0.00 0.00 0.00 53 1012.4
20260507163403 16 276 4.8 12.9 0.00 0.00 0.00 55 1012.5
20260507162902 16 284 6.4 14.5 0.00 0.00 0.00 53 1012.5
20260507162402 16 293 6.4 14.5 0.00 0.00 0.00 53 1012.4
20260507161902 16 279 6.4 11.3 0.00 0.00 0.00 53 1012.4
20260507161401 16 249 4.8 11.3 0.00 0.00 0.00 51 1012.4
20260507160902 17 298 6.4 14.5 0.00 0.00 0.00 51 1012.4
20260507160400 17 296 8.0 14.5 0.00 0.00 0.00 51 1012.4
20260507155858 17 325 9.7 16.1 0.00 0.00 0.00 49 1012.3
20260507155358 17 306 8.0 16.1 0.00 0.00 0.00 50 1012.2
20260507154858 17 325 8.0 16.1 0.00 0.00 0.00 48 1012.2
20260507154359 17 286 8.0 16.1 0.00 0.00 0.00 48 1012.2
20260507153856 17 265 8.0 14.5 0.00 0.00 0.00 48 1012.2
20260507153606 18 317 6.4 12.9 0.00 0.00 0.00 48 1012.3
20260507153347 18 317 6.4 12.9 0.00 0.00 0.00 48 1012.3
20260507152845 18 290 8.0 14.5 0.00 0.00 0.00 49 1012.3
20260507152545 18 290 8.0 20.9 0.00 0.00 0.00 52 1012.3
20260507152342 18 247 8.0 20.9 0.00 0.00 0.00 48 1012.3
20260507151842 18 290 8.0 20.9 0.00 0.00 0.00 52 1012.3
20260507151342 17 293 8.0 16.1 0.00 0.00 0.00 48 1012.2
20260507150839 17 245 9.7 17.7 0.00 0.00 0.00 50 1012.3
20260507150340 17 310 9.7 17.7 0.00 0.00 0.00 48 1012.3
20260507145837 18 292 8.0 16.1 0.00 0.00 0.00 48 1012.3
20260507145339 18 300 6.4 16.1 0.00 0.00 0.00 49 1012.2
20260507144836 18 299 8.0 17.7 0.00 0.00 0.00 47 1012.2
20260507144336 18 300 9.7 17.7 0.00 0.00 0.00 46 1012.2
20260507143837 18 274 9.7 20.9 0.00 0.00 0.00 44 1012.1
20260507143334 19 296 9.7 20.9 0.00 0.00 0.00 46 1012.2
20260507142833 18 270 9.7 16.1 0.00 0.00 0.00 48 1012.1
20260507142332 18 298 9.7 16.1 0.00 0.00 0.00 47 1012.1
20260507141832 18 296 9.7 16.1 0.00 0.00 0.00 48 1012.1
20260507141332 18 258 9.7 20.9 0.00 0.00 0.00 47 1012.2
20260507140831 18 340 11.3 20.9 0.00 0.00 0.00 49 1012.2
20260507140325 18 237 9.7 19.3 0.00 0.00 0.00 47 1012.2
20260507135827 18 302 9.7 19.3 0.00 0.00 0.00 46 1012.1
20260507135321 18 264 11.3 24.1 0.00 0.00 0.00 46 1012.2
20260507134809 18 290 11.3 24.1 0.00 0.00 0.00 46 1012.2
20260507134304 18 252 11.3 22.5 0.00 0.00 0.00 49 1012.2
20260507133804 18 321 11.3 22.5 0.00 0.00 0.00 47 1012.2
20260507133304 18 257 11.3 27.4 0.00 0.00 0.00 46 1012.3
20260507132803 18 271 11.3 27.4 0.00 0.00 0.00 49 1012.3
20260507132307 18 339 11.3 20.9 0.00 0.00 0.00 47 1012.3
20260507131804 19 264 11.3 20.9 0.00 0.00 0.00 46 1012.3
20260507131304 19 310 9.7 24.1 0.00 0.00 0.00 47 1012.3
20260507130802 19 333 12.9 24.1 0.00 0.00 0.00 48 1012.2
20260507130303 19 285 12.9 27.4 0.00 0.00 0.00 46 1012.3
20260507125802 20 262 11.3 27.4 0.00 0.00 0.00 46 1012.3
20260507125306 20 321 9.7 19.3 0.00 0.00 0.00 49 1012.3
20260507124801 19 274 8.0 19.3 0.00 0.00 0.00 50 1012.3
20260507124300 19 265 11.3 25.7 0.00 0.00 0.00 47 1012.3
20260507123802 19 259 11.3 25.7 0.00 0.00 0.00 49 1012.3
20260507123300 18 256 8.0 25.7 0.00 0.00 0.00 52 1012.3
20260507122759 18 259 9.7 22.5 0.00 0.00 0.00 49 1012.2
20260507122300 18 284 12.9 22.5 0.00 0.00 0.00 49 1012.3
20260507121758 18 260 12.9 24.1 0.00 0.00 0.00 49 1012.3
20260507121252 18 196 11.3 24.1 0.00 0.00 0.00 46 1012.3
20260507120742 18 285 12.9 24.1 0.00 0.00 0.00 47 1012.2
20260507120242 19 235 12.9 24.1 0.00 0.00 0.00 46 1012.3
20260507115744 19 284 11.3 24.1 0.00 0.00 0.00 48 1012.2
20260507115242 18 279 12.9 30.6 0.00 0.00 0.00 49 1012.2
20260507114742 18 294 12.9 30.6 0.00 0.00 0.00 47 1012.2
20260507114241 18 269 9.7 22.5 0.00 0.00 0.00 49 1012.3
20260507113740 17 271 11.3 25.7 0.00 0.00 0.00 50 1012.2
20260507113242 18 309 12.9 25.7 0.00 0.00 0.00 50 1012.3
20260507112742 17 263 11.3 24.1 0.00 0.00 0.00 53 1012.3
20260507112240 17 221 9.7 22.5 0.00 0.00 0.00 50 1012.2
20260507111741 17 251 9.7 22.5 0.00 0.00 0.00 48 1012.2
20260507111239 18 274 9.7 19.3 0.00 0.00 0.00 47 1012.2
20260507110739 18 235 11.3 25.7 0.00 0.00 0.00 45 1012.2
20260507110239 18 228 11.3 25.7 0.00 0.00 0.00 47 1012.2
20260507105739 18 275 9.7 25.7 0.00 0.00 0.00 51 1012.2
20260507105238 17 300 9.7 25.7 0.00 0.00 0.00 50 1012.2
20260507104738 17 250 9.7 17.7 0.00 0.00 0.00 49 1012.2
20260507104236 17 244 11.3 20.9 0.00 0.00 0.00 50 1012.3
20260507103736 18 281 11.3 20.9 0.00 0.00 0.00 49 1012.3
20260507103236 18 227 9.7 22.5 0.00 0.00 0.00 49 1012.2
20260507102736 18 246 9.7 22.5 0.00 0.00 0.00 51 1012.3
20260507102234 18 278 11.3 17.7 0.00 0.00 0.00 50 1012.3
20260507101736 18 271 12.9 20.9 0.00 0.00 0.00 47 1012.3
20260507101246 18 250 12.9 22.5 0.00 0.00 0.00 47 1012.3
20260507100732 18 271 12.9 22.5 0.00 0.00 0.00 48 1012.3
20260507100231 18 229 11.3 20.9 0.00 0.00 0.00 50 1012.2
20260507095731 18 234 11.3 22.5 0.00 0.00 0.00 50 1012.2
20260507095232 18 238 14.5 27.4 0.00 0.00 0.00 51 1012.3
20260507094732 17 259 12.9 27.4 0.00 0.00 0.00 51 1012.2
20260507094241 17 209 8.0 20.9 0.00 0.00 0.00 51 1012.2
20260507093731 17 163 6.4 12.9 0.00 0.00 0.00 54 1012.2
20260507093231 16 261 6.4 12.9 0.00 0.00 0.00 55 1012.3
20260507092732 16 213 6.4 12.9 0.00 0.00 0.00 57 1012.3
20260507092232 16 242 9.7 20.9 0.00 0.00 0.00 58 1012.3
20260507091738 16 242 9.7 20.9 0.00 0.00 0.00 57 1012.3
20260507091219 16 235 9.7 20.9 0.00 0.00 0.00 59 1012.2
20260507090717 16 274 9.7 20.9 0.00 0.00 0.00 58 1012.2
20260507090214 15 219 9.7 20.9 0.00 0.00 0.00 61 1012.2
20260507085713 15 261 9.7 20.9 0.00 0.00 0.00 61 1012.3
20260507085213 15 267 11.3 22.5 0.00 0.00 0.00 59 1012.2
20260507084713 15 258 9.7 22.5 0.00 0.00 0.00 59 1012.2
20260507084216 15 245 9.7 24.1 0.00 0.00 0.00 61 1012.1
20260507083713 15 149 12.9 24.1 0.00 0.00 0.00 58 1012.1
20260507083214 15 227 12.9 25.7 0.00 0.00 0.00 59 1012.0
20260507082713 15 232 12.9 25.7 0.00 0.00 0.00 61 1012.0
20260507082211 15 269 12.9 30.6 0.00 0.00 0.00 58 1012.0
20260507081711 15 259 12.9 30.6 0.00 0.00 0.00 61 1012.0
20260507081211 15 238 12.9 25.7 0.00 0.00 0.00 60 1011.9
20260507080711 15 285 12.9 24.1 0.00 0.00 0.00 60 1011.9
20260507080217 15 259 12.9 29.0 0.00 0.00 0.00 62 1011.8
20260507075713 15 305 12.9 29.0 0.00 0.00 0.00 63 1011.7
20260507075208 15 229 14.5 25.7 0.00 0.00 0.00 62 1011.8
20260507074709 15 259 14.5 30.6 0.00 0.00 0.00 65 1011.8
20260507074205 14 238 14.5 30.6 0.00 0.00 0.00 68 1011.7
20260507073703 14 279 14.5 35.4 0.00 0.00 0.00 66 1011.6
20260507073155 14 281 12.9 35.4 0.00 0.00 0.00 66 1011.7
20260507072652 13 239 12.9 29.0 0.00 0.00 0.00 67 1011.7
20260507072138 13 269 12.9 29.0 0.00 0.00 0.00 69 1011.6
20260507071632 13 257 12.9 29.0 0.00 0.00 0.00 71 1011.6
20260507071132 13 252 12.9 25.7 0.00 0.00 0.00 70 1011.6
20260507070621 12 260 11.3 25.7 0.00 0.00 0.00 72 1011.5
20260507070119 12 271 11.3 25.7 0.00 0.00 0.00 73 1011.6
20260507065613 12 268 11.3 29.0 0.00 0.00 0.00 74 1011.6
20260507065105 11 246 11.3 30.6 0.00 0.00 0.00 75 1011.6
20260507064603 11 249 11.3 30.6 0.00 0.00 0.00 74 1011.6
20260507064104 11 258 11.3 25.7 0.00 0.00 0.00 74 1011.6
20260507063604 11 312 9.7 25.7 0.00 0.00 0.00 74 1011.6
20260507063103 11 209 11.3 27.4 0.00 0.00 0.00 73 1011.5
20260507062602 11 217 12.9 27.4 0.00 0.00 0.00 73 1011.4
20260507062101 12 254 12.9 25.7 0.00 0.00 0.00 73 1011.3
20260507061601 12 200 14.5 25.7 0.00 0.00 0.00 72 1011.3
20260507061109 12 269 14.5 25.7 0.00 0.00 0.00 72 1011.4
20260507060601 12 239 14.5 27.4 0.00 0.00 0.00 73 1011.4
20260507055601 11 281 12.9 27.4 0.00 0.00 0.00 76 1011.3
20260507055102 11 234 12.9 27.4 0.00 0.00 0.00 76 1011.1
20260507054602 11 215 11.3 22.5 0.00 0.00 0.00 76 1011.2
20260507054101 11 238 9.7 22.5 0.00 0.00 0.00 78 1011.1
20260507053602 11 227 8.0 22.5 0.00 0.00 0.00 77 1011.0
20260507053101 11 242 8.0 16.1 0.00 0.00 0.00 78 1011.1
20260507052603 11 229 11.3 22.5 0.00 0.00 0.00 78 1011.0
20260507052055 11 264 12.9 22.5 0.00 0.00 0.00 78 1010.8
20260507051553 11 202 12.9 24.1 0.00 0.00 0.00 79 1010.8
20260507051042 10 213 11.3 24.1 0.00 0.00 0.00 80 1010.7
20260507050537 10 221 9.7 22.5 0.00 0.00 0.00 79 1010.7
20260507050036 10 215 8.0 16.1 0.00 0.00 0.00 81 1010.7
20260507045535 10 242 8.0 17.7 0.00 0.00 0.00 81 1010.6
20260507045037 10 232 8.0 17.7 0.00 0.00 0.00 82 1010.6
20260507044535 10 244 6.4 12.9 0.00 0.00 0.00 82 1010.5
20260507044035 10 284 8.0 19.3 0.00 0.00 0.00 83 1010.4
20260507043533 10 230 9.7 19.3 0.00 0.00 0.00 83 1010.4
20260507043033 10 244 9.7 19.3 0.00 0.00 0.00 83 1010.3
20260507042533 10 213 9.7 16.1 0.00 0.00 0.00 83 1010.2
20260507042034 10 236 8.0 14.5 0.00 0.00 0.00 83 1010.2
20260507041533 10 229 6.4 14.5 0.00 0.00 0.00 83 1010.2
20260507041036 10 257 4.8 11.3 0.00 0.00 0.00 83 1010.2
20260507040533 10 257 6.4 16.1 0.00 0.00 0.00 83 1010.1
20260507040034 10 250 8.0 17.7 0.00 0.00 0.00 83 1010.0
20260507035531 10 244 8.0 17.7 0.00 0.00 0.00 83 1009.8
20260507035032 10 243 6.4 16.1 0.00 0.00 0.00 83 1009.7
20260507034533 10 241 6.4 14.5 0.00 0.00 0.00 83 1009.7
20260507034029 10 261 4.8 11.3 0.00 0.00 0.00 82 1009.7
20260507033529 10 255 6.4 14.5 0.00 0.00 0.00 82 1009.7
20260507033023 11 230 8.0 16.1 0.00 0.00 0.00 82 1009.6
20260507032517 11 218 8.0 16.1 0.00 0.00 0.00 82 1009.7
20260507032008 11 257 8.0 16.1 0.00 0.00 0.00 82 1009.7
20260507031505 11 276 8.0 16.1 0.00 0.00 0.00 82 1009.7
20260507031005 11 221 8.0 19.3 0.00 0.00 0.00 82 1009.5
20260507030512 11 281 8.0 19.3 0.00 0.00 0.00 82 1009.5
20260507030003 11 225 6.4 12.9 0.00 0.00 0.00 82 1009.5
20260507025503 11 234 6.4 12.9 0.00 0.00 0.00 82 1009.5
20260507025003 11 242 6.4 12.9 0.00 0.00 0.00 82 1009.4
20260507024503 11 262 8.0 22.5 0.00 0.00 0.00 82 1009.4
20260507024005 11 257 9.7 22.5 0.00 0.00 0.00 82 1009.4
20260507023505 11 209 9.7 17.7 0.00 0.00 0.00 82 1009.4
20260507023003 11 244 9.7 24.1 0.00 0.00 0.00 82 1009.3
20260507022504 11 218 9.7 24.1 0.00 0.00 0.00 82 1009.2
20260507022005 11 223 9.7 17.7 0.00 0.00 0.00 82 1009.2
20260507021504 11 273 9.7 19.3 0.00 0.00 0.00 82 1009.2
20260507021003 11 261 9.7 19.3 0.00 0.00 0.00 82 1009.2
20260507020458 11 253 8.0 20.9 0.00 0.00 0.00 82 1009.2
20260507015957 11 255 6.4 20.9 0.00 0.00 0.00 83 1009.0
20260507015456 11 267 6.4 14.5 0.00 0.00 0.00 83 1009.0
20260507014956 11 281 8.0 16.1 0.00 0.00 0.00 83 1009.0
20260507014456 11 252 9.7 16.1 0.00 0.00 0.00 83 1008.9
20260507013957 11 259 8.0 16.1 0.00 0.00 0.00 82 1008.9
20260507013456 11 256 8.0 16.1 0.00 0.00 0.00 83 1008.9
20260507012454 11 261 8.0 16.1 0.00 0.00 0.00 82 1008.7
20260507011955 11 255 9.7 20.9 0.00 0.00 0.00 82 1008.8
20260507011456 11 272 11.3 22.5 0.00 0.00 0.00 82 1008.8
20260507010955 11 234 9.7 22.5 0.00 0.00 0.00 83 1008.8
20260507010457 11 218 9.7 22.5 0.00 0.00 0.00 82 1008.7
20260507005951 12 244 11.3 22.5 0.00 0.00 0.00 83 1008.7
20260507005450 12 244 9.7 22.5 0.00 0.00 0.00 83 1008.6
20260507004950 12 251 8.0 20.9 0.00 0.00 0.00 83 1008.7
20260507004450 12 243 8.0 20.9 0.00 0.00 0.00 84 1008.6
20260507003950 12 235 6.4 14.5 0.00 0.00 0.00 84 1008.6
20260507003449 12 240 8.0 16.1 0.00 0.00 0.00 83 1008.5
20260507002949 12 260 9.7 17.7 0.00 0.00 0.00 83 1008.5
20260507002448 12 259 9.7 20.9 0.00 0.00 0.00 84 1008.6
20260507001947 12 227 9.7 20.9 0.00 0.00 0.00 84 1008.5
20260507001447 12 254 8.0 16.1 0.00 0.00 0.00 84 1008.4
20260507000945 12 237 6.4 12.9 0.00 0.00 0.00 84 1008.3
20260507000446 12 229 6.4 12.9 0.00 0.00 0.00 84 1008.3
20260506235947 12 248 4.8 12.9 0.00 0.00 0.00 84 1008.3
20260506235441 12 233 4.8 12.9 0.00 0.00 0.00 83 1008.3
20260506234941 12 263 6.4 14.5 0.00 0.00 0.00 83 1008.3
20260506234442 12 259 6.4 14.5 0.00 0.00 0.00 83 1008.2
20260506233941 12 209 6.4 16.1 0.00 0.00 0.00 83 1008.2
20260506233442 12 244 8.0 16.1 0.00 0.00 0.00 83 1008.2
20260506232940 12 216 8.0 16.1 0.00 0.00 0.00 82 1008.0
20260506232441 12 246 6.4 17.7 0.00 0.00 0.00 82 1008.0
20260506231943 12 268 8.0 17.7 0.00 0.00 0.00 82 1007.8
20260506231441 12 304 8.0 16.1 0.00 0.00 0.00 82 1007.9
20260506230941 12 315 9.7 17.7 0.00 0.00 0.00 82 1008.0
20260506230441 12 252 11.3 19.3 0.00 0.00 0.00 82 1008.0
20260506225941 12 258 9.7 20.9 0.00 0.00 0.00 82 1007.9
20260506225441 12 258 9.7 20.9 0.00 0.00 0.00 82 1007.9
20260506224940 12 235 9.7 17.7 0.00 0.00 0.00 81 1007.9
20260506224441 12 218 9.7 17.7 0.00 0.00 0.00 81 1007.9
20260506223941 12 242 9.7 19.3 0.00 0.00 0.00 81 1007.8
20260506223442 12 265 8.0 19.3 0.00 0.00 0.00 81 1007.8
20260506222941 12 270 8.0 24.1 0.00 0.00 0.00 81 1007.8
20260506222441 12 269 9.7 24.1 0.00 0.00 0.00 81 1007.8
20260506221935 12 265 8.0 16.1 0.00 0.00 0.00 81 1007.7
20260506221432 12 254 8.0 19.3 0.00 0.00 0.00 82 1007.6
20260506220935 12 252 8.0 19.3 0.00 0.00 0.00 82 1007.4
20260506220433 12 302 8.0 19.3 0.00 0.00 0.00 82 1007.4
20260506215933 12 281 9.7 17.7 0.00 0.00 0.00 82 1007.0
20260506215434 13 280 8.0 17.7 0.00 0.00 0.00 82 1006.8
20260506214932 13 234 9.7 17.7 0.00 0.00 0.00 82 1006.7
20260506214432 13 253 9.7 19.3 0.00 0.00 0.00 82 1006.6
20260506213933 13 267 8.0 19.3 0.00 0.00 0.00 82 1006.5
20260506213432 13 232 6.4 12.9 0.00 0.00 0.00 81 1006.5
20260506212933 13 252 6.4 12.9 0.00 0.00 0.00 81 1006.3
20260506212432 13 269 6.4 16.1 0.00 0.00 0.00 80 1006.1
20260506211932 13 268 6.4 16.1 0.00 0.00 0.00 80 1006.1
20260506211435 13 337 6.4 12.9 0.00 0.00 0.00 79 1006.0
20260506210934 13 266 6.4 12.9 0.00 0.00 0.00 78 1006.1
20260506210431 14 281 8.0 17.7 0.00 0.00 0.00 78 1006.1
20260506205932 14 281 8.0 17.7 0.00 0.00 0.00 78 1005.9
20260506205431 14 321 8.0 19.3 0.00 0.00 0.00 77 1005.9
20260506204934 14 281 8.0 19.3 0.00 0.00 0.00 77 1006.0
20260506204429 14 288 11.3 22.5 0.00 0.00 0.00 77 1006.1
20260506203930 14 323 14.5 32.2 0.00 0.00 0.00 76 1006.1
20260506203430 14 296 14.5 32.2 0.00 0.00 0.00 76 1006.1
20260506202929 14 282 11.3 32.2 0.00 0.00 0.00 75 1006.1
20260506202429 15 277 11.3 30.6 0.00 0.00 0.00 75 1006.0
20260506201930 15 302 12.9 27.4 0.00 0.00 0.00 75 1006.1
20260506201430 15 282 14.5 27.4 0.00 0.00 0.00 74 1006.0
20260506200932 15 287 12.9 32.2 0.00 0.00 0.00 73 1006.0
20260506200426 15 266 12.9 32.2 0.00 0.00 0.00 72 1006.0
20260506195925 15 283 17.7 35.4 0.00 0.00 0.00 71 1005.8
20260506195425 16 307 22.5 43.5 0.00 0.00 0.00 69 1005.7
20260506194924 16 270 20.9 43.5 0.00 0.00 0.00 68 1005.6
20260506194423 17 309 17.7 35.4 0.00 0.00 0.00 65 1005.5
20260506193933 17 227 14.5 32.2 0.00 0.00 0.00 60 1005.5
20260506193424 18 284 11.3 32.2 0.00 0.00 0.00 56 1005.2
20260506192924 17 202 8.0 16.1 0.00 0.00 0.00 49 1004.5
20260506192424 17 191 8.0 16.1 0.00 0.00 0.00 51 1004.3
20260506191919 17 197 8.0 16.1 0.00 0.00 0.00 52 1004.2
20260506191417 17 190 8.0 17.7 0.00 0.00 0.00 53 1004.2
20260506190913 17 195 6.4 17.7 0.00 0.00 0.00 55 1004.1
20260506190410 17 190 4.8 11.3 0.00 0.00 0.00 53 1003.9
20260506185912 17 209 3.2 11.3 0.00 0.00 0.00 54 1004.0
20260506185410 17 196 1.6 8.0 0.00 0.00 0.00 53 1003.8
20260506184910 18 195 1.6 6.4 0.00 0.00 0.00 52 1003.7
20260506184410 18 195 3.2 6.4 0.00 0.00 0.00 51 1003.5
20260506183910 18 196 3.2 4.8 0.00 0.00 0.00 50 1003.3
20260506183411 19 196 3.2 8.0 0.00 0.00 0.00 50 1003.2
20260506182909 19 197 1.6 8.0 0.00 0.00 0.00 49 1003.0
20260506182408 20 182 1.6 4.8 0.00 0.00 0.00 49 1002.9
20260506181907 20 156 3.2 4.8 0.00 0.00 0.00 47 1002.8
20260506181404 20 154 3.2 6.4 0.00 0.00 0.00 46 1002.7
20260506180905 20 148 4.8 9.7 0.00 0.00 0.00 45 1002.7
20260506180404 20 162 6.4 11.3 0.00 0.00 0.00 45 1002.6
20260506175904 21 140 6.4 11.3 0.00 0.00 0.00 44 1002.7
20260506175403 21 132 4.8 8.0 0.00 0.00 0.00 44 1002.8
20260506174901 21 151 4.8 9.7 0.00 0.00 0.00 44 1002.8
20260506174400 21 143 3.2 9.7 0.00 0.00 0.00 43 1002.8
20260506173901 21 156 4.8 8.0 0.00 0.00 0.00 43 1002.8
20260506173356 22 177 6.4 9.7 0.00 0.00 0.00 41 1002.8
20260506172855 22 165 6.4 14.5 0.00 0.00 0.00 41 1002.7
20260506172352 22 160 6.4 16.1 0.00 0.00 0.00 40 1002.7
20260506171852 22 170 6.4 16.1 0.00 0.00 0.00 40 1002.7
20260506171350 23 130 6.4 12.9 0.00 0.00 0.00 40 1002.5
20260506170850 23 127 6.4 16.1 0.00 0.00 0.00 39 1002.6
20260506170349 23 167 6.4 16.1 0.00 0.00 0.00 38 1002.7
20260506165846 23 113 8.0 16.1 0.00 0.00 0.00 39 1002.8
20260506165346 23 140 6.4 16.1 0.00 0.00 0.00 39 1002.9
20260506164846 23 154 6.4 14.5 0.00 0.00 0.00 39 1002.9